This is the latest recevied weather packets stored in our database for station/object K7KAR-2. If no packets are shown the sender has not sent any weather packets the latest 10 day(s).
| Time | Temp. | Humidity | Pressure | Rain* | Wind** | Luminosity | Snow |
|---|---|---|---|---|---|---|---|
| 1777823816 | 15.56° C | 44% | 1014.1 hPa | 0 mm | - | 897 W/m² | - |
| 1777823514 | 15.56° C | 45% | 1014.3 hPa | 0 mm | - | 853 W/m² | - |
| 1777823210 | 15° C | 44% | 1014.1 hPa | 0 mm | - | 820 W/m² | - |
| 1777822908 | 15° C | 46% | 1014 hPa | 0 mm | - | 832 W/m² | - |
| 1777822606 | 14.44° C | 45% | 1014.3 hPa | 0 mm | - | 797 W/m² | - |
| 1777822304 | 13.89° C | 46% | 1014.5 hPa | 0 mm | - | 802 W/m² | - |
| 1777822001 | 13.89° C | 48% | 1014.5 hPa | 0 mm | - | 789 W/m² | - |
| 1777821699 | 13.89° C | 45% | 1014.6 hPa | 0 mm | - | 796 W/m² | - |
| 1777821396 | 13.89° C | 48% | 1014.3 hPa | 0 mm | - | 742 W/m² | - |
| 1777821093 | 13.33° C | 51% | 1014.4 hPa | 0 mm | - | 719 W/m² | - |
| 1777820790 | 13.33° C | 51% | 1014.7 hPa | 0 mm | - | 704 W/m² | - |
| 1777820486 | 12.78° C | 54% | 1014.6 hPa | 0 mm | - | 679 W/m² | - |
| 1777820183 | 12.78° C | 56% | 1014.5 hPa | 0 mm | - | 663 W/m² | - |
| 1777819880 | 12.78° C | 57% | 1014.7 hPa | 0 mm | - | 619 W/m² | - |
| 1777819578 | 12.22° C | 55% | 1014.9 hPa | 0 mm | - | 584 W/m² | - |
| 1777819275 | 11.67° C | 57% | 1014.7 hPa | 0 mm | - | 564 W/m² | - |
| 1777818972 | 11.67° C | 57% | 1014.5 hPa | 0 mm | - | 535 W/m² | - |
| 1777818669 | 11.11° C | 60% | 1014.7 hPa | 0 mm | - | 342 W/m² | - |
| 1777818365 | 11.11° C | 60% | 1014.7 hPa | 0 mm | - | 867 W/m² | - |
| 1777818062 | 11.11° C | 61% | 1014.8 hPa | 0 mm | - | 1034 W/m² | - |
| 1777817759 | 11.11° C | 61% | 1014.8 hPa | 0 mm | - | 1112 W/m² | - |
| 1777817456 | 11.11° C | 63% | 1014.9 hPa | 0 mm | - | 805 W/m² | - |
| 1777817152 | 11.11° C | 63% | 1014.8 hPa | 0 mm | - | 147 W/m² | - |
| 1777816850 | 10.56° C | 64% | 1015.3 hPa | 0 mm | - | 136 W/m² | - |
| 1777816547 | 10.56° C | 65% | 1015 hPa | 0 mm | - | 122 W/m² | - |
* Rain latest hour (hover to see other rain measurements)
** Current wind speed in m/s (hover to see current wind gust speed)